OneWeb SL0511

operational
NORAD ID: 54129 Int'l Des: 2022-138 Owner: ONEWEBN Country: UK Constellation: oneweb
LEOCIRCULARPOLARONEWEB_TYPE

OneWeb SL0511について

説明を読み込み中...

リアルタイム位置

3D地球を読み込み中...

次回通過

高度履歴

Altitude vs Time

uPlot chart will show altitude changes over time

軌道要素

1 54129U 22138S 25353.70625569 .00000097 00000-0 21078-3 0 9992
2 54129 87.9214 340.6648 0002036 91.8542 268.2824 13.19725121153165
Epoch: Dec 19, 2025 • Age: 7 hours

現在のステータス

高度 1216.1 km
速度 7.25 km/s
衛星直下点 -87.93°S, 165.09°E
打ち上げ日 Oct 22, 2022
運用期間 3.1 years
タイプ internet

技術仕様

分類 Payload
質量 148.00 kg
乾燥質量 140.00 kg
総質量 148.00 kg
長さ 1.30 m
直径 1.00 m
スパン 5.00 m
形状 Trapezoid+2 pan
製造者 ONEWUS
バスタイプ ARROW
フェーズステータス In Orbit
所有者/国 ONEWEBN/UK

大規模コンステレーション

Loading constellations...